FALCON 9 R/B, 55684

Orbit data source: Space-Track

FALCON 9 R/B, 55684 is space debris in HEO originally from a launch on Sat, 18 Feb 2023 UTC launched from the Air Force Eastern Test Range (AFETR). Debris objects in space refer to the collection of defunct objects orbiting the Earth. Examples of debris include non-operational satellites, rocket bodies, and fragments generated from explosions, collisions, or faulty payload assembly.

Loading next visibility...
Identifier
55684, 2023-022B
Orbit
HEO
Country
Flag of USUS
Related business
Manufacturer
SpaceX
Mission
Spacecraft
Bus & Motor
F9ST2, Unknown motor
Mass
~3,000 kg wet, ~3,000 kg dry
Launch date (UTC)
2023-02-18 (3 years ago)
Launch vehicle
Unknown
Launch site
Air Force Eastern Test Range (AFETR)
Object type
Payload
Rocket body
Debris
Shape & HBR
Cyl, 7.8 m
Radar Cross Section
39.980 m², Large (>1 m²)

Expand to show TLE details & history
Last TLE update: 14 hours ago

TLE from 14 hours ago
0 FALCON 9 R/B
1 55684U 23022B   25290.54734176  .00024715 -57966-6  18852-2 0  9997
2 55684  26.7211  77.9606 7295704   2.4591 359.6011  2.28999084 20490
Epoch: 2025-10-17T13:08Z
TLE epoch observation values (Epoch: 2025-10-17T13:08:10.328Z)
Latitude
0.00006°
Longitude
-145.38611°
Altitude
208.654 km
Speed
10.229 km/s
True Right ascension
05h 11m 47s
True Declination
0° 00' 00"
Sunlit
Object was in full shadow at epoch
Visualization orbit readout
Latitude
Unknown
Longitude
Unknown
Altitude
Unknown
Speed
Unknown
Apparent Right ascension
Unknown
Apparent Declination
Unknown
Sunlit
N/A
Visualization observer readout
Local Sidereal Time
21:30:24
Azimuth
Unknown
Elevation
Unknown
Doppler factor
Unknown
Orbital elements
Apogee altitude
35,680.481 km
Perigee altitude
198.002 km
Semi-major axis
24,317.378 km
Eccentricity
0.72957
Inclination
26.7211°
RAAN
77.9606°
Arg. of periapsis
2.4591°
True anomaly
356.27185°
Mean anomaly
359.6011°
Eccentric anomaly
358.52538°
Mean motion
0.57236 °/min
Orbital period
628.98 mins
BSTAR
0.0018852
Loading maneuver chart data...
Computing Atmospheric mass density...
Loading historical data...
Loading historical data...
Loading historical data...
Loading historical data...
Loading historical data...
Loading historical data...
Loading historical data...
Other satellites on launch #22 in the year 2023 (2023-02-18 UTC)

Documentation

Showing up to 5 results
|